Lexington Weather

Lexington, Massachusetts, USA

47°F
10/22/2019 2:59am 
  • Lexington Conditions: Mostly cloudy
  • Temperature: 47.1°F / 8.4°CWarmer 1.1°F than last hour.
  • Dew Point: 45.7°FIncreased 1.3°Fsince last hour.
  • Relative Humidity: 95%Increased 1.0% since last hour.
  • Wind: Calm, 10-min avg: Calm, gust: None
  • Barometer: 30.12 in Steady
  • Visibility: 9 miles
  • Rain Today: 0.00 in
  •   

Regional Weather Roundup
for Boston, MA

        
000
ASUS41 KBOX 211310
RWRBOX

REGIONAL WEATHER ROUNDUP
NATIONAL WEATHER SERVICE BOSTON/NORTON MA
900 AM EDT MON OCT 21 2019

NOTE:  "FAIR" INDICATES FEW OR NO CLOUDS BELOW 12,000 FEET WITH NO 
SIGNIFICANT WEATHER AND/OR OBSTRUCTIONS TO VISIBILITY.

MAZALL-211400-
EASTERN MASSACHUSETTS
  
CITY           SKY/WX    TMP DP  RH WIND       PRES   REMARKS
BOSTON         FAIR      58  50  75 N12       30.10R                  
BEVERLY        PTSUNNY   55  50  83 N9        30.09F                  
LAWRENCE       FAIR      52  48  86 N7        30.13                   
BEDFORD        PTSUNNY   55  48  77 NE6       30.10                   
BLUE HILL      NOT AVBL                                               
NORWOOD        CLOUDY    58  50  75 N3        30.09R                  
MARSHFIELD     CLOUDY    57  54  88 NE9G16    30.08S                  
PLYMOUTH       PTSUNNY   55  52  89 NE13      30.06                   
TAUNTON        PTSUNNY   58  51  78 VRB6      30.06S                  
NEW BEDFORD    CLOUDY    56  51  84 NE10      30.04                   
$$

MAZALL-211400-
CAPE COD AND THE ISLANDS
  
CITY           SKY/WX    TMP DP  RH WIND       PRES   REMARKS
FALMOUTH       PTSUNNY   54  54 100 NE15      30.05                   
HYANNIS        CLOUDY    55  52  89 NE9       30.04                   
CHATHAM        NOT AVBL                                               
PROVINCETOWN   FAIR      55  52  89 NE9         N/A                   
NANTUCKET      CLOUDY    54  53  97 NE20G28   30.01R                  
MARTHAS VNYRD  CLOUDY    55  54  96 NE14      30.03R                  
$$
 
MAZALL-211400-
CENTRAL AND WESTERN MASSACHUSETTS
  
CITY           SKY/WX    TMP DP  RH WIND       PRES   REMARKS
WORCESTER      CLOUDY    46  46 100 NE9       30.09S FOG              
FITCHBURG      FAIR      47  45  93 CALM      30.12                   
ORANGE         PTSUNNY   46  43  89 N6        30.13R                  
SPRINGFIELD    MOSUNNY   46  45  99 N9        30.10  FOG              
WESTFIELD      CLOUDY    46  44  93 N6        30.11                   
NORTH ADAMS    FOG       41  40  96 CALM      30.13R VSB 1/4          
PITTSFIELD     CLOUDY    42  41  96 CALM      30.10R FOG              
$$
 
RIZALL-211400-
RHODE ISLAND
  
CITY           SKY/WX    TMP DP  RH WIND       PRES   REMARKS
PROVIDENCE     PTSUNNY   54  51  90 N10       30.08                   
NEWPORT        CLOUDY    56  52  86 NE16G22   30.04S                  
BLOCK ISLAND   CLOUDY    55  52  89 NE17G25   30.02                   
SMITHFIELD     CLOUDY   N/A N/A N/A NE12G18   30.08R                  
WESTERLY       PTSUNNY   58  53  84 NE10G18   30.04S                  
$$
 
CTZALL-211400-
CONNECTICUT
  
CITY           SKY/WX    TMP DP  RH WIND       PRES   REMARKS
BRADLEY INTL   FAIR      51  46  83 N10       30.09                   
HARTFORD       FAIR      50  46  86 N9        30.09R                  
BRIDGEPORT     FAIR      54  46  74 N10       30.07                   
DANBURY        FAIR      48  46  93 CALM      30.09R                  
GROTON         CLOUDY    53  50  89 N9        30.04R                  
NEW HAVEN      FAIR      53  48  83 N8        30.06                   
CHESTER        FAIR      54  46  76 N7        30.05S                  
MERIDEN        FAIR      51  46  83 N8        30.08                   
WILLIMANTIC    FAIR      52  47  83 NE10      30.07                   
OXFORD         FAIR      49  46  90 N10       30.09                   
$$

MEZ002-015-021-024-NHZ003-005-008-011-012-014-VTZ005-008-211400-
NORTHERN NEW ENGLAND
  
CITY           SKY/WX    TMP DP  RH WIND       PRES   REMARKS
PORTLAND ME    FOG       48  46  93 N3        30.15S VSB 1            
BANGOR ME      FAIR      48  45  89 CALM      30.15                   
CONCORD NH     FOG       44  43  96 NW3       30.14  VSB 1/4          
MANCHESTER NH  FOG       48  47  96 N6        30.11R VSB 3/4          
NASHUA NH      CLOUDY    47  47 100 N6        30.13  FOG              
PORTSMOUTH NH  MOSUNNY   53  46  77 N5        30.11                   
JAFFREY NH     FOG       44  42  93 VRB5      30.13  VSB 1/4          
KEENE NH       FOG       41  41 100 CALM      30.14R VSB 1/4          
BURLINGTON VT  FOG       41  39  93 CALM      30.14S VSB 1/4          
MT. WASHINGTON MOSUNNY   41  14  33 N16         N/A                   
$$

NYZ052-076-211400-
EASTERN NEW YORK
  
CITY           SKY/WX    TMP DP  RH WIND       PRES   REMARKS
ALBANY         DRZL/FOG  47  44  90 N5        30.15  VSB 3/4          
NEW YORK CITY  FAIR      55  45  68 NE9       30.06                   
$$
 
ANZALL-211400-
MARINE OBSERVATIONS
  
STATION/POSITION TIME  TEMP    WIND        PRES    VSBY  WAVE
                       AIR SEA DIR/SP/G                  HT/PER
                 (UTC) (F)     (DEG/KT/KT) (MB)    (MI)  (FT/S)
BOSTON BUOY      1250   56 57   40/ 14/ 16 1018.1          2/ 3
BUZZARDS BAY     NOT AVBL
NANTUCKET SOUND  1240      56                N/A           3/ 4
MASS BAY-STELLWA 1204   56 56   30/ 10/ 14 1018.6   1 7/8  1/ 3
ISLE OF SHOALS   NOT AVBL
S OF BLOCK IS    1300      60                N/A           7/ 6
$$

......................KEY.........................
  SKY/WX - SKY CONDITION/PRESENT WEATHER
  TMP    - TEMPERATURE IN FAHRENHEIT
  DWPT   - DEWPOINT IN FAHRENHEIT
  RH     - RELATIVE HUMIDITY IN PERCENT
  WIND   - DIRECTION AND SPEED IN MPH
  PRES   - MEAN SEA LEVEL PRESSURE IN INCHES OF HG
  WCI    - WIND CHILL INDEX
  VSB    - VISIBILITY IN MILES
  HX     - HEAT INDEX
  TC     - TEMPERATURE IN CELSIUS
  VRB    - VARIABLE WIND DIRECTION
  N/A    - NOT AVAILABLE
  
      

Other recent Regional Weather Roundups

Tue Oct 22, 2:10am

Tue Oct 22, 2:00am

Tue Oct 22, 1:10am

Tue Oct 22, 1:00am

Tue Oct 22, 12:10am

Tue Oct 22, 12:00am

Mon Oct 21, 11:10pm

Mon Oct 21, 11:00pm

Mon Oct 21, 10:10pm

Mon Oct 21, 10:01pm

Mon Oct 21, 9:10pm

Mon Oct 21, 9:00pm

Mon Oct 21, 8:10pm

Mon Oct 21, 8:00pm

Mon Oct 21, 7:10pm

Mon Oct 21, 7:01pm

Mon Oct 21, 6:10pm

Mon Oct 21, 6:01pm

Mon Oct 21, 5:10pm

Mon Oct 21, 5:01pm

Mon Oct 21, 4:10pm

Mon Oct 21, 4:00pm

Mon Oct 21, 3:10pm

Mon Oct 21, 3:01pm

Mon Oct 21, 2:10pm

Mon Oct 21, 2:00pm

Mon Oct 21, 1:10pm

Mon Oct 21, 1:01pm

Mon Oct 21, 12:10pm

Mon Oct 21, 12:00pm

Mon Oct 21, 11:10am

Mon Oct 21, 11:00am

Mon Oct 21, 10:10am

Mon Oct 21, 10:00am

Mon Oct 21, 9:00am

Mon Oct 21, 7:10am

Mon Oct 21, 7:00am

Mon Oct 21, 6:10am

Mon Oct 21, 6:00am

Mon Oct 21, 5:10am

Mon Oct 21, 5:00am

Mon Oct 21, 4:10am

Mon Oct 21, 4:00am

Mon Oct 21, 3:10am

Mon Oct 21, 3:00am

Mon Oct 21, 2:10am

Mon Oct 21, 2:01am

Mon Oct 21, 1:10am

Mon Oct 21, 1:00am

Mon Oct 21, 12:10am

Mon Oct 21, 12:00am

Sun Oct 20, 11:10pm

Sun Oct 20, 11:00pm

Sun Oct 20, 10:10pm

Sun Oct 20, 10:00pm

Sun Oct 20, 9:10pm

Sun Oct 20, 9:01pm

Sun Oct 20, 8:10pm

Sun Oct 20, 8:00pm

Sun Oct 20, 7:10pm

Sun Oct 20, 7:01pm

Sun Oct 20, 6:10pm

Sun Oct 20, 6:00pm

Sun Oct 20, 5:10pm

Sun Oct 20, 5:00pm

Sun Oct 20, 4:10pm

Sun Oct 20, 4:00pm

Sun Oct 20, 3:10pm

Sun Oct 20, 3:00pm

Sun Oct 20, 2:10pm

Sun Oct 20, 2:01pm

Sun Oct 20, 1:10pm

Sun Oct 20, 1:01pm

Sun Oct 20, 12:10pm

Sun Oct 20, 12:00pm

Sun Oct 20, 11:10am

Sun Oct 20, 11:00am

Sun Oct 20, 10:10am

Sun Oct 20, 10:00am

Sun Oct 20, 9:10am

Sun Oct 20, 9:00am

Sun Oct 20, 8:10am

Sun Oct 20, 8:00am

Sun Oct 20, 7:10am

Sun Oct 20, 7:00am

Sun Oct 20, 6:10am

Sun Oct 20, 6:00am

Sun Oct 20, 5:10am

Sun Oct 20, 5:00am

Sun Oct 20, 4:10am

Sun Oct 20, 4:00am

Sun Oct 20, 3:10am

Sun Oct 20, 3:00am

Sun Oct 20, 2:10am

Sun Oct 20, 2:00am

Sun Oct 20, 1:10am

Sun Oct 20, 1:00am

Sun Oct 20, 12:10am

Sun Oct 20, 12:00am

Sat Oct 19, 11:10pm

Sat Oct 19, 11:00pm

Sat Oct 19, 10:10pm

Sat Oct 19, 10:00pm

Sat Oct 19, 9:10pm

Sat Oct 19, 9:00pm

Sat Oct 19, 8:10pm

Sat Oct 19, 8:00pm

Sat Oct 19, 7:10pm

Sat Oct 19, 7:00pm

Sat Oct 19, 6:10pm

Sat Oct 19, 6:00pm

Sat Oct 19, 5:10pm

Sat Oct 19, 5:00pm

Sat Oct 19, 4:10pm

Sat Oct 19, 4:00pm

Sat Oct 19, 3:10pm

Sat Oct 19, 3:01pm

Sat Oct 19, 2:10pm

Sat Oct 19, 2:00pm

Sat Oct 19, 1:10pm

Sat Oct 19, 1:01pm

Sat Oct 19, 12:10pm

Sat Oct 19, 12:00pm

Sat Oct 19, 11:10am

Sat Oct 19, 11:01am

Sat Oct 19, 10:10am

Sat Oct 19, 10:00am

Sat Oct 19, 9:10am

Sat Oct 19, 9:00am

Sat Oct 19, 8:10am

Sat Oct 19, 8:00am

Sat Oct 19, 7:10am

Sat Oct 19, 7:00am

Sat Oct 19, 6:10am

Sat Oct 19, 6:00am

Sat Oct 19, 5:10am

Sat Oct 19, 5:00am

Sat Oct 19, 4:10am

Sat Oct 19, 4:00am

Sat Oct 19, 3:10am

Sat Oct 19, 3:00am

Meta data:

ID: 3315322d-233c-4467-b4fb-8fc32df3785b
Link: https://api.weather.gov/products/3315322d-233c-4467-b4fb-8fc32df3785b